EN

Hourly Weather Lahr

Today, 25 July, Sunday

Time Temperature Precipitation Wind Pressure Humidity
00:00 +20°C° 0.3 mm 1 mps 742 mmHg 95%
01:00 +19°C° 0 mm 1 mps 742 mmHg 96%
02:00 +19°C° 0 mm 1 mps 742 mmHg 96%
03:00 +19°C° 0 mm 1 mps 742 mmHg 96%
04:00 +19°C° 0 mm 1 mps 742 mmHg 97%
05:00 +20°C° 0 mm 1 mps 742 mmHg 95%
06:00 +20°C° 0 mm 1 mps 742 mmHg 94%
07:00 +21°C° 0 mm 1 mps 742 mmHg 93%
08:00 +22°C° 0.1 mm 1 mps 742 mmHg 89%
09:00 +22°C° 0.1 mm 1 mps 742 mmHg 85%
10:00 +23°C° 0.1 mm 1 mps 742 mmHg 81%
11:00 +23°C° 0.4 mm 1 mps 742 mmHg 80%
12:00 +24°C° 0.4 mm 1 mps 742 mmHg 79%
13:00 +24°C° 0.4 mm 1 mps 742 mmHg 78%
14:00 +24°C° 0.4 mm 1 mps 742 mmHg 75%
15:00 +25°C° 0.4 mm 1 mps 742 mmHg 72%
16:00 +26°C° 0.4 mm 1 mps 742 mmHg 69%
17:00 +25°C° 0.4 mm 1 mps 742 mmHg 74%
18:00 +24°C° 0.4 mm 1 mps 742 mmHg 79%
19:00 +23°C° 0.4 mm 1 mps 742 mmHg 83%
20:00 +22°C° 0.1 mm 1 mps 742 mmHg 86%
21:00 +21°C° 0.1 mm 1 mps 743 mmHg 88%
22:00 +20°C° 0.1 mm 1 mps 743 mmHg 90%
23:00 +19°C° 0 mm 1 mps 743 mmHg 90%

Tomorrow, 26 July, Monday

Time Temperature Precipitation Wind Pressure Humidity
00:00 +19°C° 0 mm 1 mps 743 mmHg 91%
01:00 +19°C° 0 mm 1 mps 743 mmHg 91%
02:00 +19°C° 0 mm 1 mps 743 mmHg 91%
03:00 +18°C° 0 mm 1 mps 743 mmHg 91%
04:00 +18°C° 0 mm 1 mps 743 mmHg 91%
05:00 +19°C° 0 mm 1 mps 743 mmHg 89%
06:00 +20°C° 0 mm 1 mps 744 mmHg 88%
07:00 +20°C° 0 mm 1 mps 744 mmHg 86%
08:00 +22°C° 0.1 mm 1 mps 744 mmHg 81%
09:00 +23°C° 0.1 mm 1 mps 744 mmHg 76%
10:00 +24°C° 0.1 mm 1 mps 744 mmHg 70%
11:00 +25°C° 0.5 mm 1 mps 744 mmHg 70%
12:00 +25°C° 0.5 mm 1 mps 744 mmHg 69%
13:00 +26°C° 0.5 mm 2 mps 744 mmHg 68%
14:00 +26°C° 0.6 mm 2 mps 744 mmHg 69%
15:00 +25°C° 0.6 mm 2 mps 744 mmHg 70%
16:00 +25°C° 0.6 mm 2 mps 744 mmHg 71%
17:00 +24°C° 0.5 mm 1 mps 744 mmHg 76%
18:00 +24°C° 0.5 mm 1 mps 744 mmHg 80%
19:00 +23°C° 0.5 mm 1 mps 745 mmHg 85%
20:00 +21°C° 0.2 mm 1 mps 745 mmHg 87%
21:00 +20°C° 0.2 mm 1 mps 745 mmHg 89%
22:00 +19°C° 0.2 mm 1 mps 745 mmHg 91%
23:00 +18°C° 0 mm 1 mps 745 mmHg 92%

Day after tomorrow, 27 July, Tuesday

Time Temperature Precipitation Wind Pressure Humidity
00:00 +18°C° 0 mm 1 mps 745 mmHg 92%
01:00 +18°C° 0 mm 1 mps 746 mmHg 93%
02:00 +16°C° 0 mm 1 mps 746 mmHg 93%
03:00 +16°C° 0 mm 1 mps 745 mmHg 93%
04:00 +16°C° 0 mm 1 mps 745 mmHg 93%
05:00 +18°C° 0 mm 1 mps 746 mmHg 91%
06:00 +19°C° 0 mm 1 mps 746 mmHg 90%
07:00 +19°C° 0 mm 1 mps 746 mmHg 89%
08:00 +21°C° 0 mm 1 mps 746 mmHg 83%
09:00 +22°C° 0 mm 1 mps 746 mmHg 78%
10:00 +23°C° 0 mm 1 mps 746 mmHg 72%
11:00 +24°C° 0.1 mm 1 mps 746 mmHg 70%
12:00 +24°C° 0.1 mm 2 mps 746 mmHg 68%
13:00 +25°C° 0.1 mm 2 mps 745 mmHg 66%
14:00 +25°C° 0.2 mm 1 mps 745 mmHg 67%
15:00 +25°C° 0.2 mm 1 mps 745 mmHg 67%
16:00 +25°C° 0.2 mm 1 mps 745 mmHg 68%
17:00 +24°C° 0.1 mm 1 mps 745 mmHg 73%
18:00 +24°C° 0.1 mm 1 mps 745 mmHg 77%
19:00 +23°C° 0.1 mm 1 mps 745 mmHg 82%
20:00 +22°C° 0.1 mm 1 mps 745 mmHg 84%
21:00 +21°C° 0.1 mm 1 mps 745 mmHg 86%
22:00 +20°C° 0.1 mm 1 mps 745 mmHg 88%
23:00 +20°C° 0.4 mm 1 mps 745 mmHg 91%

28 July, Wednesday

Time Temperature Precipitation Wind Pressure Humidity
00:00 +19°C° 0.4 mm 1 mps 745 mmHg 93%
01:00 +19°C° 0.4 mm 1 mps 745 mmHg 96%
02:00 +19°C° 1.4 mm 1 mps 745 mmHg 97%
03:00 +19°C° 1.4 mm 1 mps 745 mmHg 97%
04:00 +18°C° 1.4 mm 1 mps 745 mmHg 98%
05:00 +19°C° 2.2 mm 1 mps 745 mmHg 98%
06:00 +18°C° 2.2 mm 2 mps 745 mmHg 97%
07:00 +18°C° 2.2 mm 2 mps 745 mmHg 97%
08:00 +19°C° 0.2 mm 2 mps 746 mmHg 92%
09:00 +20°C° 0.2 mm 2 mps 746 mmHg 87%
10:00 +21°C° 0.2 mm 2 mps 746 mmHg 82%
11:00 +23°C° 0.1 mm 2 mps 746 mmHg 77%
12:00 +24°C° 0.1 mm 2 mps 745 mmHg 72%
13:00 +25°C° 0.1 mm 2 mps 745 mmHg 67%
14:00 +26°C° 0.2 mm 2 mps 745 mmHg 67%
15:00 +26°C° 0.2 mm 2 mps 745 mmHg 67%
16:00 +26°C° 0.2 mm 2 mps 745 mmHg 67%
17:00 +26°C° 0.3 mm 2 mps 745 mmHg 73%
18:00 +25°C° 0.3 mm 1 mps 745 mmHg 79%
19:00 +24°C° 0.3 mm 1 mps 745 mmHg 84%
20:00 +23°C° 0 mm 1 mps 745 mmHg 86%
21:00 +22°C° 0 mm 1 mps 745 mmHg 89%
22:00 +21°C° 0 mm 1 mps 745 mmHg 91%
23:00 +20°C° 0.1 mm 1 mps 745 mmHg 92%

29 July, Thursday

Time Temperature Precipitation Wind Pressure Humidity
00:00 +20°C° 0.1 mm 1 mps 744 mmHg 92%
01:00 +20°C° 0.1 mm 1 mps 744 mmHg 93%
02:00 +20°C° 0.2 mm 1 mps 744 mmHg 94%
03:00 +19°C° 0.2 mm 1 mps 744 mmHg 94%
04:00 +19°C° 0.2 mm 1 mps 744 mmHg 95%
05:00 +20°C° 0.2 mm 1 mps 744 mmHg 94%
06:00 +20°C° 0.2 mm 1 mps 744 mmHg 93%
07:00 +21°C° 0.2 mm 1 mps 744 mmHg 93%
08:00 +21°C° 0.1 mm 2 mps 745 mmHg 90%
09:00 +23°C° 0.1 mm 2 mps 745 mmHg 87%
10:00 +24°C° 0.1 mm 3 mps 745 mmHg 85%
11:00 +22°C° 0.4 mm 3 mps 745 mmHg 86%
12:00 +23°C° 0.4 mm 2 mps 746 mmHg 87%
13:00 +23°C° 0.4 mm 2 mps 746 mmHg 89%
14:00 +23°C° 0.2 mm 2 mps 746 mmHg 89%
15:00 +21°C° 0.2 mm 2 mps 746 mmHg 89%
16:00 +21°C° 0.2 mm 2 mps 746 mmHg 89%
17:00 +21°C° 0.2 mm 2 mps 746 mmHg 89%
18:00 +22°C° 0.2 mm 1 mps 746 mmHg 90%
19:00 +21°C° 0.2 mm 1 mps 746 mmHg 90%
20:00 +21°C° 0 mm 1 mps 746 mmHg 91%
21:00 +20°C° 0 mm 1 mps 746 mmHg 91%
22:00 +18°C° 0 mm 0 mps 746 mmHg 91%
23:00 +17°C° 0 mm 0 mps 746 mmHg 92%

30 July, Friday

Time Temperature Precipitation Wind Pressure Humidity
00:00 +17°C° 0 mm 0 mps 746 mmHg 92%
01:00 +16°C° 0 mm 0 mps 746 mmHg 92%
02:00 +16°C° 0 mm 0 mps 746 mmHg 93%
03:00 +16°C° 0 mm 0 mps 745 mmHg 93%
04:00 +15°C° 0 mm 0 mps 745 mmHg 93%
05:00 +16°C° 0 mm 0 mps 745 mmHg 92%
06:00 +17°C° 0 mm 0 mps 745 mmHg 91%
07:00 +17°C° 0 mm 0 mps 745 mmHg 91%
08:00 +18°C° 0 mm 0 mps 745 mmHg 86%
09:00 +22°C° 0 mm 1 mps 745 mmHg 82%
10:00 +23°C° 0 mm 1 mps 745 mmHg 78%
11:00 +24°C° 0.1 mm 1 mps 745 mmHg 73%
12:00 +25°C° 0.1 mm 1 mps 745 mmHg 68%
13:00 +26°C° 0.1 mm 1 mps 745 mmHg 63%
14:00 +26°C° 0.1 mm 1 mps 745 mmHg 63%
15:00 +26°C° 0.1 mm 1 mps 745 mmHg 62%
16:00 +26°C° 0.1 mm 2 mps 745 mmHg 62%
17:00 +25°C° 0.3 mm 1 mps 745 mmHg 69%
18:00 +24°C° 0.3 mm 1 mps 745 mmHg 76%
19:00 +23°C° 0.3 mm 1 mps 745 mmHg 83%
20:00 +22°C° 0.1 mm 1 mps 746 mmHg 85%
21:00 +21°C° 0.1 mm 1 mps 746 mmHg 87%
22:00 +19°C° 0.1 mm 1 mps 746 mmHg 89%
23:00 +17°C° 0 mm 0 mps 747 mmHg 90%
Show more